DateTimeUTC,F1_A11,F1_S11,BsB_S11,BsG_S11,BsR_S11,BbsB_S11,BbsG_S11,BbsR_S11,BaB_A11,BaG_A11,BaR_A11,Tu_S11,T_S11,Uu_S11,U_S11,P_S11,T1_A11
2021-10-18T10:00:00Z,00000200,21000000,,,,,,,0000.20,0000.16,-000.12,16.7,24.0,,00.0,0671.1,30.9
2021-10-18T10:01:00Z,00000200,21000000,,,,,,,0000.51,0000.21,0000.41,16.7,24.0,,00.0,0671.1,30.8
2021-10-18T10:02:00Z,00000200,21000000,,,,,,,0000.33,0000.86,0000.34,16.7,24.0,,00.0,0671.1,30.8
2021-10-18T10:03:00Z,00000200,61000000,,,,,,,0001.23,0000.87,0000.92,16.7,24.0,,00.0,0671.1,30.9
2021-10-18T10:04:00Z,00000200,41000000,0004.25,0002.93,0001.73,0001.45,0000.13,0000.40,0000.67,0000.25,0000.11,16.8,23.7,,00.0,0672.1,30.9
2021-10-18T10:05:00Z,00000200,01000000,0004.12,0002.48,0001.66,0000.52,0000.20,0000.30,0000.26,0000.75,0000.83,16.9,23.7,,00.0,0672.2,30.9
2021-10-18T10:06:00Z,00000200,01000000,0003.15,0002.71,0001.73,0000.13,0000.25,0000.08,0000.55,0000.49,0000.29,17.0,23.7,,00.0,0672.2,30.9
2021-10-18T10:07:00Z,00000200,01000000,0004.04,0002.80,0001.75,0000.52,0000.36,0000.44,0000.66,0000.53,0000.40,17.0,23.7,,00.0,0672.2,30.9
2021-10-18T10:08:00Z,00000200,01000000,0003.89,0002.72,0001.51,0000.33,0000.57,0000.29,0001.18,0001.07,0000.50,17.0,23.7,,00.0,0672.2,30.9
2021-10-18T10:09:00Z,00000200,01000000,0003.85,0002.51,0001.66,0000.94,0000.06,0000.12,0000.49,0000.18,0000.56,17.1,23.7,,00.0,0672.2,30.9
2021-10-18T10:10:00Z,00000200,01000000,0003.22,0002.75,0001.45,0000.27,0000.22,0000.29,0000.60,0000.57,0000.64,17.1,23.7,,00.0,0672.2,30.9
2021-10-18T10:11:00Z,00000200,01000000,0003.70,0002.63,0001.86,0000.22,0000.23,0000.28,0000.60,0000.56,0000.44,17.1,23.7,,00.0,0672.3,30.9
2021-10-18T10:12:00Z,00000200,01000000,0003.47,0002.84,0001.73,0000.33,0000.27,0000.35,0000.54,0000.65,0000.32,17.1,23.7,,00.0,0672.3,30.9
2021-10-18T10:13:00Z,00000200,01000000,0003.92,0002.83,0001.63,-000.11,0000.21,0000.38,0000.78,0000.94,0000.22,17.2,23.7,,00.0,0672.3,30.9
2021-10-18T10:14:00Z,00000200,01000000,0003.04,0002.77,0001.79,0000.64,0000.31,0000.46,0000.62,0000.72,0000.58,17.2,23.8,,00.0,0672.3,30.9
2021-10-18T10:15:00Z,00000200,01000000,0003.65,0002.83,0002.11,0000.54,0000.13,0000.37,0001.18,0000.56,0000.91,17.2,23.7,,00.0,0672.2,30.9
2021-10-18T10:16:00Z,00000200,01000000,0003.43,0002.38,0001.56,0000.72,0000.16,0000.49,0000.85,0000.46,0000.29,17.1,23.7,,00.0,0672.3,30.9
2021-10-18T10:17:00Z,00000200,01000000,0003.70,0003.38,0001.87,0000.31,0000.14,0000.08,0000.70,0001.06,0000.43,17.2,23.7,,00.0,0672.4,30.9
2021-10-18T10:18:00Z,00000200,01000000,0003.70,0002.95,0001.62,0000.49,0000.05,0000.10,0000.38,0000.13,0000.59,17.2,23.7,,00.0,0672.4,30.9
2021-10-18T10:19:00Z,00000200,01000000,0003.80,0002.77,0001.68,0001.07,0000.24,0000.29,0000.58,0000.60,0000.53,17.2,23.8,,00.0,0672.4,30.9
2021-10-18T10:20:00Z,00000200,01000000,0003.40,0002.99,0001.12,0000.32,0000.07,0000.26,0001.10,0000.77,0000.33,17.2,23.8,,00.0,0672.4,30.9
2021-10-18T10:21:00Z,00000200,01000000,0003.42,0002.49,0001.37,0000.36,0000.13,0000.32,0000.70,0000.81,0000.73,17.2,23.8,,00.0,0672.4,30.9
2021-10-18T10:22:00Z,00000200,01000000,0004.08,0002.69,0001.67,0000.05,0000.20,0000.16,0000.84,0000.52,0000.40,17.3,23.8,,00.0,0672.4,31.0
2021-10-18T10:23:00Z,00000200,01000000,0003.78,0002.52,0001.82,0000.03,0000.14,0000.34,0000.91,0000.79,0000.59,17.3,23.8,,00.0,0672.4,30.9
2021-10-18T10:24:00Z,00000200,01000000,0002.91,0002.55,0001.44,0000.19,0000.37,-000.05,0000.86,0001.06,0000.74,17.3,23.8,,00.0,0672.4,30.9
2021-10-18T10:25:00Z,00000200,01000000,0002.92,0002.69,0001.81,0000.75,0000.22,0000.37,0000.91,0000.83,0000.62,17.3,23.8,,00.0,0672.4,31.0
2021-10-18T10:26:00Z,00000200,01000000,0002.96,0002.48,0001.57,-000.02,0000.56,0000.47,0001.06,0001.01,0000.45,17.4,23.8,,00.0,0672.4,30.9
2021-10-18T10:27:00Z,00000200,01000000,0003.33,0003.01,0001.69,0000.51,0000.10,0000.37,0000.72,0000.59,0000.56,17.4,23.9,,00.0,0672.4,30.9
2021-10-18T10:28:00Z,00000200,01000000,0003.52,0002.91,0001.86,0000.28,-000.02,0000.23,0000.81,0000.58,0000.53,17.3,23.8,,00.0,0672.4,30.9
2021-10-18T10:29:00Z,00000200,01000000,0003.64,0002.18,0001.65,0000.20,0000.14,0000.45,0000.85,0000.83,0000.64,17.2,23.8,,00.0,0672.4,30.9
2021-10-18T10:30:00Z,00000200,01000000,0003.73,0002.59,0001.67,0000.95,0000.02,0000.07,0000.44,0000.21,0000.21,17.2,23.8,,00.0,0672.4,30.9
2021-10-18T10:31:00Z,00000200,01000000,0004.27,0002.68,0001.53,0000.70,0000.20,0000.12,0000.86,0000.62,0000.25,17.1,23.7,,00.0,0672.4,30.9
2021-10-18T10:32:00Z,00000200,01000000,0003.43,0002.93,0001.84,-000.27,0000.23,0000.14,0000.50,0000.77,0000.64,17.1,23.7,,00.0,0672.4,30.9
2021-10-18T10:33:00Z,00000200,01000000,0004.32,0002.52,0001.81,0000.81,0000.31,0000.43,0000.91,0000.58,0000.38,17.2,23.7,,00.0,0672.4,30.9
2021-10-18T10:34:00Z,00000200,01000000,0002.72,0002.57,0001.66,0000.36,0000.33,0000.43,0000.53,0000.71,0000.47,17.2,23.7,,00.0,0672.4,30.9
2021-10-18T10:35:00Z,00000200,01000000,0003.31,0002.85,0001.66,0000.75,0000.41,0000.51,0000.94,0000.75,0000.65,17.2,23.7,,00.0,0672.5,30.9
2021-10-18T10:36:00Z,00000200,01000000,0003.30,0003.13,0001.87,0000.82,0000.46,0000.02,0000.57,0000.67,0000.44,17.2,23.7,,00.0,0672.5,30.9
2021-10-18T10:37:00Z,00000200,01000000,0003.98,0002.49,0001.87,0000.80,-000.03,0000.34,0000.84,0000.52,0000.73,17.3,23.7,,00.0,0672.5,30.9
2021-10-18T10:38:00Z,00000200,01000000,0003.69,0002.68,0001.37,0000.44,0000.26,0000.08,0000.56,0000.25,0000.22,17.3,23.8,,00.0,0672.5,30.9
2021-10-18T10:39:00Z,00000200,01000000,0003.24,0002.68,0001.20,0000.85,0000.26,0000.02,0000.65,0000.95,0000.36,17.3,23.8,,00.0,0672.5,30.9
2021-10-18T10:40:00Z,00000200,01000000,0003.45,0002.45,0001.27,0000.63,0000.35,0000.30,0000.60,0000.30,0000.11,17.3,23.8,,00.0,0672.5,31.0
2021-10-18T10:41:00Z,00000200,01000000,0003.60,0002.66,0001.61,0000.79,0000.48,0000.04,0000.39,0000.48,0000.85,17.4,23.8,,00.0,0672.5,31.0
2021-10-18T10:42:00Z,00000200,01000000,0003.57,0003.00,0001.59,0001.07,-000.01,0000.15,0001.90,0001.89,0000.88,17.4,23.8,,00.0,0672.6,31.0
2021-10-18T10:43:00Z,00000200,01000000,0003.99,0002.56,0001.73,-000.01,0000.39,0000.52,0000.09,0000.10,0000.06,17.4,23.8,,00.0,0672.6,31.0
2021-10-18T10:44:00Z,00000200,01000000,0003.93,0002.83,0001.78,0000.51,0000.40,0000.36,0000.57,0000.60,0000.46,17.4,23.9,,00.0,0672.6,30.9
2021-10-18T10:45:00Z,00000200,01000000,0003.63,0002.48,0001.45,0000.16,0000.37,0000.28,0000.81,0000.47,0000.35,17.3,23.8,,00.0,0672.6,30.9
2021-10-18T10:46:00Z,00000200,01000000,0003.45,0002.93,0001.72,0000.17,0000.36,0000.10,0000.58,0000.57,0000.51,17.3,23.8,,00.0,0672.6,30.9
2021-10-18T10:47:00Z,00000200,01000000,0003.52,0002.51,0001.67,0000.99,0000.25,0000.28,0000.36,0000.28,0000.64,17.3,23.8,,00.0,0672.6,30.9
2021-10-18T10:48:00Z,00000200,01000000,0003.77,0002.63,0001.49,0000.40,0000.24,0000.24,0001.05,0000.94,0000.45,17.3,23.8,,00.0,0672.6,30.9
2021-10-18T10:49:00Z,00000200,01000000,0003.67,0002.58,0001.36,0000.07,0000.29,0000.33,0000.87,0000.75,0000.29,17.3,23.8,,00.0,0672.6,30.9
2021-10-18T10:50:00Z,00000200,01000000,0002.42,0002.37,0001.51,-000.08,0000.35,0000.18,0001.06,0001.10,0001.01,17.4,23.8,,00.0,0672.6,31.0
2021-10-18T10:51:00Z,00000200,01000000,0003.53,0002.58,0001.11,0000.59,0000.33,0000.19,0000.78,0000.89,0000.67,17.4,23.8,,00.0,0672.6,31.0
2021-10-18T10:52:00Z,00000200,01000000,0003.88,0002.50,0001.99,0001.13,0000.16,0000.14,0001.07,0000.80,0000.69,17.4,23.9,,00.0,0672.6,31.0
2021-10-18T10:53:00Z,00000200,01000000,0003.54,0002.38,0001.38,0000.22,0000.17,0000.18,0001.20,0001.04,0000.55,17.4,23.9,,00.0,0672.6,31.0
2021-10-18T10:54:00Z,00000200,01000000,0002.77,0002.05,0001.63,0000.20,0000.46,0000.21,0001.17,0000.85,0000.63,17.5,23.9,,00.0,0672.6,31.0
2021-10-18T10:55:00Z,00000200,01000000,0003.48,0002.46,0001.32,0000.93,0000.21,0000.27,0000.93,0000.97,0000.48,17.5,23.9,,00.0,0672.5,31.0
2021-10-18T10:56:00Z,00000200,01000000,0002.95,0002.49,0001.11,-000.08,0000.34,-000.17,0001.01,0001.15,0000.75,17.4,23.9,,00.0,0672.5,30.9
2021-10-18T10:57:00Z,00000200,41000000,,,,,,,-000.45,-000.58,-000.41,17.5,23.9,,00.0,0672.4,30.9
2021-10-18T10:58:00Z,00000200,61000000,,,,,,,0000.91,0000.89,0000.89,17.0,24.0,,00.0,0671.5,30.9
2021-10-18T10:59:00Z,00000200,21000000,,,,,,,0000.62,0000.28,-000.17,16.9,24.1,,00.0,0671.5,30.9
